カタログに戻る

STARLINK-3792

運用中通信VLEO
NORAD 52339·PAYLOAD·🇺🇸 United States

打ち上げ Apr 29, 2022 から Cape Canaveral Space Force Station

Loading…

次のパス (今後24時間)

TLE

最新Source: CelesTrak SupGP

元期: Sep 14, 2026, 21:14 UTC

1 52339C 22045J   26257.88520833  .00738870  00000+0  25295-1 0  2577
2 52339  53.1596  77.6960 0001263  88.6057   8.8399 15.29316767    19

AllMySatでSTARLINK-3792をリアルタイム追跡

Download on the App Store